Change the Weather History Date:

Friday, June 14, 2013

  Actual Average Record
Temperature  
Mean Temperature 77 °F 78 °F  
Max Temperature 86 °F 88 °F 98 °F (1963)
Min Temperature 67 °F 68 °F 51 °F (1995)
Cooling Degree Days 12 13  
Month to date cooling degree days 189 157  
Year to date cooling degree days 454 439  
Since 1 June cooling degree days 189 157  
Growing Degree Days 26 (Base 50)    
Moisture  
Dew Point 62 °F    
Average Humidity 65    
Maximum Humidity 93    
Minimum Humidity 37    
Precipitation  
Precipitation 0.00 in 0.14 in 3.21 in (1929)
Month to date precipitation 6.00 1.99  
Year to date precipitation 36.51 25.96  
Sea Level Pressure  
Sea Level Pressure 29.96 in    
Wind  
Wind Speed 5 mph (NNE)    
Max Wind Speed 16 mph    
Max Gust Speed 20 mph    
Visibility 10 miles    
Events      
T = Trace of Precipitation, MM = Missing Value Source: NWS Daily Summary

Daily Weather History Graph

Daily Weather History Graph

Search for Another Location

Airport or City:

Trip Planner

Search our weather history database for the weather conditions in past years. The results will help you decide how hot, cold, wet, or windy it might be!

Date:

Astronomy

Jun. 14, 2013 Rise Set
Actual Time 5:36 AM CDT 7:58 PM CDT
Civil Twilight 5:07 AM CDT 8:27 PM CDT
Nautical Twilight 4:31 AM CDT 9:02 PM CDT
Astronomical Twilight 3:53 AM CDT 9:41 PM CDT
Moon 10:57 AM CDT (6/14) 11:49 PM CDT (6/14)
Length of Visible Light 15h 19m
Length of Day
14h 22m
Waxing Crescent, 30% of the Moon is Illuminated
Jun 14
Waxing Crescent
Jun 16
First Quarter
Jun 23
Full
Jun 29
Last Quarter
Jul 8
New

Hourly Weather History & Observations

Time (CDT) Temp. Heat Index Dew Point Humidity Pressure Visibility Wind Dir Wind Speed Gust Speed Precip Events Conditions
12:53 AM 73.0 °F - 68.0 °F 84% 29.92 in 10.0 mi Calm Calm - N/A   Clear
1:53 AM 71.1 °F - 66.9 °F 87% 29.91 in 10.0 mi Calm Calm - N/A   Clear
2:53 AM 71.1 °F - 66.0 °F 84% 29.90 in 10.0 mi NNE 3.5 mph - N/A   Clear
3:53 AM 68.0 °F - 64.9 °F 90% 29.90 in 10.0 mi NNE 3.5 mph - N/A   Clear
4:53 AM 69.1 °F - 64.9 °F 87% 29.91 in 10.0 mi Calm Calm - N/A   Clear
5:53 AM 66.9 °F - 64.9 °F 93% 29.94 in 10.0 mi NNE 3.5 mph - N/A   Clear
6:53 AM 70.0 °F - 64.9 °F 84% 29.96 in 10.0 mi Calm Calm - N/A   Clear
7:53 AM 73.9 °F - 62.1 °F 66% 29.96 in 10.0 mi NE 8.1 mph - N/A   Clear
8:53 AM 77.0 °F - 57.0 °F 50% 29.98 in 10.0 mi ENE 9.2 mph - N/A   Clear
9:53 AM 79.0 °F - 55.0 °F 44% 29.98 in 10.0 mi NE 10.4 mph - N/A   Clear
10:53 AM 81.0 °F 81.1 °F 57.9 °F 45% 29.97 in 10.0 mi North 9.2 mph - N/A   Partly Cloudy
11:53 AM 82.0 °F 82.1 °F 59.0 °F 45% 29.98 in 10.0 mi North 12.7 mph 17.3 mph N/A   Partly Cloudy
12:53 PM 82.9 °F 82.8 °F 59.0 °F 44% 29.98 in 10.0 mi North 8.1 mph - N/A   Clear
1:53 PM 84.0 °F 83.5 °F 57.9 °F 41% 29.96 in 10.0 mi NNE 8.1 mph - N/A   Partly Cloudy
2:53 PM 84.9 °F 84.8 °F 60.1 °F 43% 29.94 in 10.0 mi North 10.4 mph 17.3 mph N/A   Partly Cloudy
3:53 PM 86.0 °F 85.0 °F 57.9 °F 38% 29.95 in 10.0 mi NE 8.1 mph - N/A   Partly Cloudy
4:53 PM 86.0 °F 85.4 °F 59.0 °F 40% 29.94 in 10.0 mi North 9.2 mph - N/A   Clear
5:53 PM 84.0 °F 83.8 °F 59.0 °F 43% 29.95 in 10.0 mi North 8.1 mph - N/A   Partly Cloudy
6:53 PM 82.0 °F 82.7 °F 61.0 °F 49% 29.96 in 10.0 mi North 5.8 mph - N/A   Clear
7:53 PM 75.9 °F - 63.0 °F 64% 29.96 in 10.0 mi North 5.8 mph - N/A   Clear
8:53 PM 75.0 °F - 63.0 °F 66% 29.98 in 10.0 mi ENE 3.5 mph - N/A   Clear
9:53 PM 73.9 °F - 63.0 °F 68% 29.99 in 10.0 mi Calm Calm - N/A   Clear
10:53 PM 71.1 °F - 63.0 °F 75% 30.01 in 10.0 mi Calm Calm - N/A   Clear
11:53 PM 69.1 °F - 62.1 °F 78% 30.02 in 10.0 mi Calm Calm - N/A   Clear